owner,sensor,date,latitude,longitude,vertical_datum,direction_of_sea_water_velocity,sea_water_speed,upward_sea_water_velocity,qcFlag 
TABS,ioos:station:wmo:42048:1,1997-04-01T00:00:00Z,27.9396,-96.8429,2.0,218.2621778,88.05600775,-99999.0,'11111222,11111222,99999999' 
TABS,ioos:station:wmo:42048:1,1997-04-01T00:30:00Z,27.9396,-96.8429,2.0,214.3149857,79.55706505,-99999.0,'11111222,11111222,99999999' 
TABS,ioos:station:wmo:42048:1,1997-04-01T01:00:00Z,27.9396,-96.8429,2.0,218.1132731,82.56344954,-99999.0,'11111222,11111222,99999999' 
TABS,ioos:station:wmo:42048:1,1997-04-01T01:30:00Z,27.9396,-96.8429,2.0,216.8229195,78.55202607,-99999.0,'11111222,11111222,99999999' 
TABS,ioos:station:wmo:42048:1,1997-04-01T02:00:00Z,27.9396,-96.8429,2.0,216.4735544,82.46197002,-99999.0,'11111222,11111222,99999999' 
TABS,ioos:station:wmo:42048:1,1997-04-01T02:30:00Z,27.9396,-96.8429,2.0,218.7960264,77.99808331,-99999.0,'11111222,11111222,99999999' 
TABS,ioos:station:wmo:42048:1,1997-04-01T03:00:00Z,27.9396,-96.8429,2.0,215.5258207,74.87859307,-99999.0,'11111222,11111222,99999999' 
TABS,ioos:station:wmo:42048:1,1997-04-01T03:30:00Z,27.9396,-96.8429,2.0,219.0322808,82.09447545,-99999.0,'11111222,11111222,99999999' 
TABS,ioos:station:wmo:42048:1,1997-04-01T04:00:00Z,27.9396,-96.8429,2.0,213.8872645,71.61499424,-99999.0,'11111222,11111222,99999999' 
TABS,ioos:station:wmo:42048:1,1997-04-01T04:30:00Z,27.9396,-96.8429,2.0,213.8246918,70.67177442,-99999.0,'11111222,11111222,99999999' 
TABS,ioos:station:wmo:42048:1,1997-04-01T05:00:00Z,27.9396,-96.8429,2.0,219.5992032,69.42076491,-99999.0,'11111222,11111222,99999999' 
TABS,ioos:station:wmo:42048:1,1997-04-01T05:30:00Z,27.9396,-96.8429,2.0,211.9217799,67.06189678,-99999.0,'11111222,11111222,99999999' 
TABS,ioos:station:wmo:42048:1,1997-04-01T06:00:00Z,27.9396,-96.8429,2.0,217.955127,75.58756578,-99999.0,'11111222,11111222,99999999' 
TABS,ioos:station:wmo:42048:1,1997-04-01T06:30:00Z,27.9396,-96.8429,2.0,220.3079194,72.09778083,-99999.0,'11111222,11111222,99999999' 
TABS,ioos:station:wmo:42048:1,1997-04-01T07:00:00Z,27.9396,-96.8429,2.0,217.0275783,63.83224264,-99999.0,'11111222,11111222,99999999' 
TABS,ioos:station:wmo:42048:1,1997-04-01T07:30:00Z,27.9396,-96.8429,2.0,214.9806567,67.83486198,-99999.0,'11111222,11111222,99999999' 
TABS,ioos:station:wmo:42048:1,1997-04-01T08:00:00Z,27.9396,-96.8429,2.0,215.0919394,77.7534205,-99999.0,'11111222,11111222,99999999' 
TABS,ioos:station:wmo:42048:1,1997-04-01T08:30:00Z,27.9396,-96.8429,2.0,213.9292595,69.67372676,-99999.0,'11111222,11111222,99999999' 
TABS,ioos:station:wmo:42048:1,1997-04-01T09:00:00Z,27.9396,-96.8429,2.0,218.1783253,69.17804565,-99999.0,'11111222,11111222,99999999' 
TABS,ioos:station:wmo:42048:1,1997-04-01T09:30:00Z,27.9396,-96.8429,2.0,216.9544703,78.31208591,-99999.0,'11111222,11111222,99999999' 
TABS,ioos:station:wmo:42048:1,1997-04-01T10:00:00Z,27.9396,-96.8429,2.0,217.9943493,76.0086449,-99999.0,'11111222,11111222,99999999' 
TABS,ioos:station:wmo:42048:1,1997-04-01T10:30:00Z,27.9396,-96.8429,2.0,215.5765259,76.57349999,-99999.0,'11111222,11111222,99999999' 
TABS,ioos:station:wmo:42048:1,1997-04-01T11:00:00Z,27.9396,-96.8429,2.0,212.029118,78.38155013,-99999.0,'11111222,11111222,99999999' 
TABS,ioos:station:wmo:42048:1,1997-04-01T11:30:00Z,27.9396,-96.8429,2.0,211.9970983,106.2881085,-99999.0,'11111222,11111222,99999999' 
TABS,ioos:station:wmo:42048:1,1997-04-01T12:00:00Z,27.9396,-96.8429,2.0,216.7542739,104.3302113,-99999.0,'11111222,11111222,99999999' 
TABS,ioos:station:wmo:42048:1,1997-04-01T12:30:00Z,27.9396,-96.8429,2.0,216.1736057,109.8201024,-99999.0,'11111222,11111222,99999999' 
TABS,ioos:station:wmo:42048:1,1997-04-01T13:00:00Z,27.9396,-96.8429,2.0,216.931077,111.8400644,-99999.0,'11111222,11111222,99999999' 
TABS,ioos:station:wmo:42048:1,1997-04-01T13:30:00Z,27.9396,-96.8429,2.0,215.8633674,110.128983,-99999.0,'11111222,11111222,99999999' 
TABS,ioos:station:wmo:42048:1,1997-04-01T14:00:00Z,27.9396,-96.8429,2.0,215.5844535,107.5430518,-99999.0,'11111222,11111222,99999999' 
TABS,ioos:station:wmo:42048:1,1997-04-01T14:30:00Z,27.9396,-96.8429,2.0,216.6952365,99.23645953,-99999.0,'11111222,11111222,99999999' 
TABS,ioos:station:wmo:42048:1,1997-04-01T15:00:00Z,27.9396,-96.8429,2.0,212.0300919,97.19651486,-99999.0,'11111222,11111222,99999999' 
TABS,ioos:station:wmo:42048:1,1997-04-01T15:30:00Z,27.9396,-96.8429,2.0,209.7335475,96.43700794,-99999.0,'11111222,11111222,99999999' 
TABS,ioos:station:wmo:42048:1,1997-04-01T16:00:00Z,27.9396,-96.8429,2.0,220.937879,65.48701398,-99999.0,'11111222,11111222,99999999' 
TABS,ioos:station:wmo:42048:1,1997-04-01T16:30:00Z,27.9396,-96.8429,2.0,222.6410944,69.07213765,-99999.0,'11111222,11111222,99999999' 
TABS,ioos:station:wmo:42048:1,1997-04-01T17:00:00Z,27.9396,-96.8429,2.0,227.6925869,76.15464529,-99999.0,'11111222,11111222,99999999' 
TABS,ioos:station:wmo:42048:1,1997-04-01T17:30:00Z,27.9396,-96.8429,2.0,223.647005,62.60346716,-99999.0,'11111222,11111222,99999999' 
TABS,ioos:station:wmo:42048:1,1997-04-01T18:00:00Z,27.9396,-96.8429,2.0,225.186355,65.11073798,-99999.0,'11111222,11111222,99999999' 
TABS,ioos:station:wmo:42048:1,1997-04-01T18:30:00Z,27.9396,-96.8429,2.0,221.2918061,55.32671145,-99999.0,'11111222,11111222,99999999' 
TABS,ioos:station:wmo:42048:1,1997-04-01T19:00:00Z,27.9396,-96.8429,2.0,226.7687026,64.82308925,-99999.0,'11111222,11111222,99999999' 
TABS,ioos:station:wmo:42048:1,1997-04-01T19:30:00Z,27.9396,-96.8429,2.0,228.0637584,63.10049524,-99999.0,'11111222,11111222,99999999' 
TABS,ioos:station:wmo:42048:1,1997-04-01T20:00:00Z,27.9396,-96.8429,2.0,227.9006326,62.45392302,-99999.0,'11111222,11111222,99999999' 
TABS,ioos:station:wmo:42048:1,1997-04-01T20:30:00Z,27.9396,-96.8429,2.0,232.5104778,62.91367498,-99999.0,'11111222,11111222,99999999' 
TABS,ioos:station:wmo:42048:1,1997-04-01T21:00:00Z,27.9396,-96.8429,2.0,230.7974042,61.52897285,-99999.0,'11111222,11111222,99999999' 
TABS,ioos:station:wmo:42048:1,1997-04-01T21:30:00Z,27.9396,-96.8429,2.0,228.7601188,56.27959133,-99999.0,'11111222,11111222,99999999' 
TABS,ioos:station:wmo:42048:1,1997-04-01T22:00:00Z,27.9396,-96.8429,2.0,229.8579148,54.77127897,-99999.0,'11111222,11111222,99999999' 
TABS,ioos:station:wmo:42048:1,1997-04-01T22:30:00Z,27.9396,-96.8429,2.0,227.3763676,58.31576288,-99999.0,'11111222,11111222,99999999' 
TABS,ioos:station:wmo:42048:1,1997-04-01T23:00:00Z,27.9396,-96.8429,2.0,228.721607,58.49503996,-99999.0,'11111222,11111222,99999999' 
TABS,ioos:station:wmo:42048:1,1997-04-01T23:30:00Z,27.9396,-96.8429,2.0,232.7106026,61.23763875,-99999.0,'11111222,11111222,99999999' 
TABS,ioos:station:wmo:42048:1,1997-04-02T00:00:00Z,27.9396,-96.8429,2.0,229.0385569,56.8228,-99999.0,'11111222,11111222,99999999' 
TABS,ioos:station:wmo:42048:1,1997-04-02T00:30:00Z,27.9396,-96.8429,2.0,228.3928671,53.40240163,-99999.0,'11111222,11111222,99999999' 
TABS,ioos:station:wmo:42048:1,1997-04-02T01:00:00Z,27.9396,-96.8429,2.0,224.3339208,54.16096473,-99999.0,'11111222,11111222,99999999' 
TABS,ioos:station:wmo:42048:1,1997-04-02T01:30:00Z,27.9396,-96.8429,2.0,220.7522386,55.46931134,-99999.0,'11111222,11111222,99999999' 
TABS,ioos:station:wmo:42048:1,1997-04-02T02:00:00Z,27.9396,-96.8429,2.0,224.5847062,58.57826218,-99999.0,'11111222,11111222,99999999' 
TABS,ioos:station:wmo:42048:1,1997-04-02T02:30:00Z,27.9396,-96.8429,2.0,225.6381094,56.48012482,-99999.0,'11111222,11111222,99999999' 
TABS,ioos:station:wmo:42048:1,1997-04-02T03:00:00Z,27.9396,-96.8429,2.0,220.0918957,52.97976312,-99999.0,'11111222,11111222,99999999' 
TABS,ioos:station:wmo:42048:1,1997-04-02T03:30:00Z,27.9396,-96.8429,2.0,223.3414523,54.49125526,-99999.0,'11111222,11111222,99999999' 
TABS,ioos:station:wmo:42048:1,1997-04-02T04:00:00Z,27.9396,-96.8429,2.0,225.9554742,56.80272001,-99999.0,'11111222,11111222,99999999' 
TABS,ioos:station:wmo:42048:1,1997-04-02T04:30:00Z,27.9396,-96.8429,2.0,223.4150582,57.02168447,-99999.0,'11111222,11111222,99999999' 
TABS,ioos:station:wmo:42048:1,1997-04-02T05:00:00Z,27.9396,-96.8429,2.0,224.2187327,54.47349539,-99999.0,'11111222,11111222,99999999' 
TABS,ioos:station:wmo:42048:1,1997-04-02T05:30:00Z,27.9396,-96.8429,2.0,225.4237746,57.31964585,-99999.0,'11111222,11111222,99999999' 
TABS,ioos:station:wmo:42048:1,1997-04-02T06:00:00Z,27.9396,-96.8429,2.0,226.2464079,58.17330401,-99999.0,'11111222,11111222,99999999' 
TABS,ioos:station:wmo:42048:1,1997-04-02T06:30:00Z,27.9396,-96.8429,2.0,227.4151901,59.89566679,-99999.0,'11111222,11111222,99999999' 
TABS,ioos:station:wmo:42048:1,1997-04-02T07:00:00Z,27.9396,-96.8429,2.0,225.8052772,59.84836255,-99999.0,'11111222,11111222,99999999' 
TABS,ioos:station:wmo:42048:1,1997-04-02T07:30:00Z,27.9396,-96.8429,2.0,227.6130827,57.6892035,-99999.0,'11111222,11111222,99999999' 
TABS,ioos:station:wmo:42048:1,1997-04-02T08:00:00Z,27.9396,-96.8429,2.0,228.2892569,55.08245546,-99999.0,'11111222,11111222,99999999' 
TABS,ioos:station:wmo:42048:1,1997-04-02T08:30:00Z,27.9396,-96.8429,2.0,229.0909417,56.19555943,-99999.0,'11111222,11111222,99999999' 
TABS,ioos:station:wmo:42048:1,1997-04-02T09:00:00Z,27.9396,-96.8429,2.0,231.905121,56.98901736,-99999.0,'11111222,11111222,99999999' 
TABS,ioos:station:wmo:42048:1,1997-04-02T09:30:00Z,27.9396,-96.8429,2.0,230.6046468,56.10848153,-99999.0,'11111222,11111222,99999999' 
TABS,ioos:station:wmo:42048:1,1997-04-02T10:00:00Z,27.9396,-96.8429,2.0,229.3342368,57.16338076,-99999.0,'11111222,11111222,99999999' 
TABS,ioos:station:wmo:42048:1,1997-04-02T10:30:00Z,27.9396,-96.8429,2.0,230.8421934,55.91856311,-99999.0,'11111222,11111222,99999999' 
TABS,ioos:station:wmo:42048:1,1997-04-02T11:00:00Z,27.9396,-96.8429,2.0,227.8923038,54.2264004,-99999.0,'11111222,11111222,99999999' 
TABS,ioos:station:wmo:42048:1,1997-04-02T11:30:00Z,27.9396,-96.8429,2.0,229.8767812,54.55991202,-99999.0,'11111222,11111222,99999999' 
TABS,ioos:station:wmo:42048:1,1997-04-02T12:00:00Z,27.9396,-96.8429,2.0,230.7558479,50.40926205,-99999.0,'11111222,11111222,99999999' 
TABS,ioos:station:wmo:42048:1,1997-04-02T12:30:00Z,27.9396,-96.8429,2.0,230.1296805,34.1628219,-99999.0,'11111222,11111222,99999999' 
TABS,ioos:station:wmo:42048:1,1997-04-02T13:00:00Z,27.9396,-96.8429,2.0,223.6695464,36.24899033,-99999.0,'11111222,11111222,99999999' 
TABS,ioos:station:wmo:42048:1,1997-04-02T13:30:00Z,27.9396,-96.8429,2.0,226.0404614,52.16480231,-99999.0,'11111222,11111222,99999999' 
TABS,ioos:station:wmo:42048:1,1997-04-02T14:00:00Z,27.9396,-96.8429,2.0,228.9878284,40.87074749,-99999.0,'11111222,11111222,99999999' 
TABS,ioos:station:wmo:42048:1,1997-04-02T14:30:00Z,27.9396,-96.8429,2.0,222.2693647,28.79779505,-99999.0,'11111222,11111222,99999999' 
TABS,ioos:station:wmo:42048:1,1997-04-02T15:00:00Z,27.9396,-96.8429,2.0,228.0275542,33.86819895,-99999.0,'11111222,11111222,99999999' 
TABS,ioos:station:wmo:42048:1,1997-04-02T15:30:00Z,27.9396,-96.8429,2.0,227.677673,38.28922172,-99999.0,'11111222,11111222,99999999' 
TABS,ioos:station:wmo:42048:1,1997-04-02T16:00:00Z,27.9396,-96.8429,2.0,225.9103473,40.04144353,-99999.0,'11111222,11111222,99999999' 
TABS,ioos:station:wmo:42048:1,1997-04-02T16:30:00Z,27.9396,-96.8429,2.0,223.4620695,35.31148538,-99999.0,'11111222,11111222,99999999' 
TABS,ioos:station:wmo:42048:1,1997-04-02T17:00:00Z,27.9396,-96.8429,2.0,224.9996843,34.9735014,-99999.0,'11111222,11111222,99999999' 
TABS,ioos:station:wmo:42048:1,1997-04-02T17:30:00Z,27.9396,-96.8429,2.0,215.8092692,25.72240463,-99999.0,'11111222,11111222,99999999' 
TABS,ioos:station:wmo:42048:1,1997-04-02T18:00:00Z,27.9396,-96.8429,2.0,222.2610273,37.44164126,-99999.0,'11111222,11111222,99999999' 
TABS,ioos:station:wmo:42048:1,1997-04-02T18:30:00Z,27.9396,-96.8429,2.0,222.8403627,39.22278037,-99999.0,'11111222,11111222,99999999' 
TABS,ioos:station:wmo:42048:1,1997-04-02T19:00:00Z,27.9396,-96.8429,2.0,224.1638338,50.8958908,-99999.0,'11111222,11111222,99999999' 
TABS,ioos:station:wmo:42048:1,1997-04-02T19:30:00Z,27.9396,-96.8429,2.0,225.8453567,35.93200941,-99999.0,'11111222,11111222,99999999' 
TABS,ioos:station:wmo:42048:1,1997-04-02T20:00:00Z,27.9396,-96.8429,2.0,234.7129126,54.94497338,-99999.0,'11111222,11111222,99999999' 
TABS,ioos:station:wmo:42048:1,1997-04-02T20:30:00Z,27.9396,-96.8429,2.0,235.2560571,53.85107798,-99999.0,'11111222,11111222,99999999' 
TABS,ioos:station:wmo:42048:1,1997-04-02T21:00:00Z,27.9396,-96.8429,2.0,231.5018537,50.26628791,-99999.0,'11111222,11111222,99999999' 
TABS,ioos:station:wmo:42048:1,1997-04-02T21:30:00Z,27.9396,-96.8429,2.0,230.1705685,46.76035286,-99999.0,'11111222,11111222,99999999' 
TABS,ioos:station:wmo:42048:1,1997-04-02T22:00:00Z,27.9396,-96.8429,2.0,228.5898103,42.12015788,-99999.0,'11111222,11111222,99999999' 
TABS,ioos:station:wmo:42048:1,1997-04-02T22:30:00Z,27.9396,-96.8429,2.0,232.0780474,29.0929012,-99999.0,'11111222,11111222,99999999' 
TABS,ioos:station:wmo:42048:1,1997-04-02T23:00:00Z,27.9396,-96.8429,2.0,229.1138644,32.3273754,-99999.0,'11111222,11111222,99999999' 
TABS,ioos:station:wmo:42048:1,1997-04-02T23:30:00Z,27.9396,-96.8429,2.0,222.2169123,34.80948865,-99999.0,'11111222,11111222,99999999' 
TABS,ioos:station:wmo:42048:1,1997-04-03T00:00:00Z,27.9396,-96.8429,2.0,221.2359897,32.10117132,-99999.0,'11111222,11111222,99999999' 
TABS,ioos:station:wmo:42048:1,1997-04-03T00:30:00Z,27.9396,-96.8429,2.0,224.4529867,44.46489852,-99999.0,'11111222,11111222,99999999' 
TABS,ioos:station:wmo:42048:1,1997-04-03T01:00:00Z,27.9396,-96.8429,2.0,219.9437193,56.16482173,-99999.0,'11111222,11111222,99999999' 
TABS,ioos:station:wmo:42048:1,1997-04-03T01:30:00Z,27.9396,-96.8429,2.0,219.7862871,57.97510241,-99999.0,'11111222,11111222,99999999' 
TABS,ioos:station:wmo:42048:1,1997-04-03T02:00:00Z,27.9396,-96.8429,2.0,221.9445208,61.29428195,-99999.0,'11111222,11111222,99999999' 
TABS,ioos:station:wmo:42048:1,1997-04-03T02:30:00Z,27.9396,-96.8429,2.0,222.5340627,58.84333437,-99999.0,'11111222,11111222,99999999' 
TABS,ioos:station:wmo:42048:1,1997-04-03T03:00:00Z,27.9396,-96.8429,2.0,221.9239509,60.88474686,-99999.0,'11111222,11111222,99999999' 
TABS,ioos:station:wmo:42048:1,1997-04-03T03:30:00Z,27.9396,-96.8429,2.0,220.8287164,62.22048537,-99999.0,'11111222,11111222,99999999' 
TABS,ioos:station:wmo:42048:1,1997-04-03T04:00:00Z,27.9396,-96.8429,2.0,220.3895427,65.54164554,-99999.0,'11111222,11111222,99999999' 
TABS,ioos:station:wmo:42048:1,1997-04-03T04:30:00Z,27.9396,-96.8429,2.0,220.4619224,66.58483086,-99999.0,'11111222,11111222,99999999' 
TABS,ioos:station:wmo:42048:1,1997-04-03T05:00:00Z,27.9396,-96.8429,2.0,220.2919828,67.97723222,-99999.0,'11111222,11111222,99999999' 
TABS,ioos:station:wmo:42048:1,1997-04-03T05:30:00Z,27.9396,-96.8429,2.0,221.898208,66.26103606,-99999.0,'11111222,11111222,99999999' 
TABS,ioos:station:wmo:42048:1,1997-04-03T06:00:00Z,27.9396,-96.8429,2.0,222.8265859,74.96480508,-99999.0,'11111222,11111222,99999999' 
TABS,ioos:station:wmo:42048:1,1997-04-03T06:30:00Z,27.9396,-96.8429,2.0,225.4433691,82.18241418,-99999.0,'11111222,11111222,99999999' 
TABS,ioos:station:wmo:42048:1,1997-04-03T07:00:00Z,27.9396,-96.8429,2.0,222.2747905,81.95441721,-99999.0,'11111222,11111222,99999999' 
TABS,ioos:station:wmo:42048:1,1997-04-03T07:30:00Z,27.9396,-96.8429,2.0,223.4185057,80.20937913,-99999.0,'11111222,11111222,99999999' 
TABS,ioos:station:wmo:42048:1,1997-04-03T08:00:00Z,27.9396,-96.8429,2.0,221.006941,81.74904097,-99999.0,'11111222,11111222,99999999' 
TABS,ioos:station:wmo:42048:1,1997-04-03T08:30:00Z,27.9396,-96.8429,2.0,225.6287656,86.30051332,-99999.0,'11111222,11111222,99999999' 
TABS,ioos:station:wmo:42048:1,1997-04-03T09:00:00Z,27.9396,-96.8429,2.0,224.5297621,89.6641556,-99999.0,'11111222,11111222,99999999' 
TABS,ioos:station:wmo:42048:1,1997-04-03T09:30:00Z,27.9396,-96.8429,2.0,225.2332039,78.07230815,-99999.0,'11111222,11111222,99999999' 
TABS,ioos:station:wmo:42048:1,1997-04-03T10:00:00Z,27.9396,-96.8429,2.0,224.8426213,74.80510745,-99999.0,'11111222,11111222,99999999' 
TABS,ioos:station:wmo:42048:1,1997-04-03T10:30:00Z,27.9396,-96.8429,2.0,218.5630965,71.46521462,-99999.0,'11111222,11111222,99999999' 
TABS,ioos:station:wmo:42048:1,1997-04-03T11:00:00Z,27.9396,-96.8429,2.0,222.4337953,68.23350497,-99999.0,'11111222,11111222,99999999' 
TABS,ioos:station:wmo:42048:1,1997-04-03T11:30:00Z,27.9396,-96.8429,2.0,222.5063967,84.6854964,-99999.0,'11111222,11111222,99999999' 
TABS,ioos:station:wmo:42048:1,1997-04-03T12:00:00Z,27.9396,-96.8429,2.0,220.1184618,90.41331318,-99999.0,'11111222,11111222,99999999' 
TABS,ioos:station:wmo:42048:1,1997-04-03T12:30:00Z,27.9396,-96.8429,2.0,214.3052613,77.19930699,-99999.0,'11111222,11111222,99999999' 
TABS,ioos:station:wmo:42048:1,1997-04-03T13:00:00Z,27.9396,-96.8429,2.0,213.1278482,75.78955931,-99999.0,'11111222,11111222,99999999' 
TABS,ioos:station:wmo:42048:1,1997-04-03T13:30:00Z,27.9396,-96.8429,2.0,224.7195935,85.34173715,-99999.0,'11111222,11111222,99999999' 
TABS,ioos:station:wmo:42048:1,1997-04-03T14:00:00Z,27.9396,-96.8429,2.0,220.2940898,71.88636171,-99999.0,'11111222,11111222,99999999' 
TABS,ioos:station:wmo:42048:1,1997-04-03T14:30:00Z,27.9396,-96.8429,2.0,223.1841207,79.90075094,-99999.0,'11111222,11111222,99999999' 
TABS,ioos:station:wmo:42048:1,1997-04-03T15:00:00Z,27.9396,-96.8429,2.0,214.9181371,63.78299225,-99999.0,'11111222,11111222,99999999' 
TABS,ioos:station:wmo:42048:1,1997-04-03T15:30:00Z,27.9396,-96.8429,2.0,211.208899,72.46739198,-99999.0,'11111222,11111222,99999999' 
TABS,ioos:station:wmo:42048:1,1997-04-03T16:00:00Z,27.9396,-96.8429,2.0,209.9670211,71.89107385,-99999.0,'11111222,11111222,99999999' 
TABS,ioos:station:wmo:42048:1,1997-04-03T16:30:00Z,27.9396,-96.8429,2.0,214.332639,80.83322708,-99999.0,'11111222,11111222,99999999' 
TABS,ioos:station:wmo:42048:1,1997-04-03T17:00:00Z,27.9396,-96.8429,2.0,215.3563151,82.3967378,-99999.0,'11111222,11111222,99999999' 
TABS,ioos:station:wmo:42048:1,1997-04-03T17:30:00Z,27.9396,-96.8429,2.0,213.4157174,77.118077,-99999.0,'11111222,11111222,99999999' 
TABS,ioos:station:wmo:42048:1,1997-04-03T18:00:00Z,27.9396,-96.8429,2.0,211.239843,79.28643327,-99999.0,'11111222,11111222,99999999' 
TABS,ioos:station:wmo:42048:1,1997-04-03T18:30:00Z,27.9396,-96.8429,2.0,207.2698655,86.49318644,-99999.0,'11111222,11111222,99999999' 
TABS,ioos:station:wmo:42048:1,1997-04-03T19:00:00Z,27.9396,-96.8429,2.0,213.0381814,83.89550941,-99999.0,'11111222,11111222,99999999' 
TABS,ioos:station:wmo:42048:1,1997-04-03T19:30:00Z,27.9396,-96.8429,2.0,207.1462849,92.09496675,-99999.0,'11111222,11111222,99999999' 
TABS,ioos:station:wmo:42048:1,1997-04-03T20:00:00Z,27.9396,-96.8429,2.0,206.7433618,86.08903531,-99999.0,'11111222,11111222,99999999' 
TABS,ioos:station:wmo:42048:1,1997-04-03T20:30:00Z,27.9396,-96.8429,2.0,209.4407742,80.9313215,-99999.0,'11111222,11111222,99999999' 
TABS,ioos:station:wmo:42048:1,1997-04-03T21:00:00Z,27.9396,-96.8429,2.0,211.1895874,84.30593099,-99999.0,'11111222,11111222,99999999' 
TABS,ioos:station:wmo:42048:1,1997-04-03T21:30:00Z,27.9396,-96.8429,2.0,216.1940256,70.90292871,-99999.0,'11111222,11111222,99999999' 
TABS,ioos:station:wmo:42048:1,1997-04-03T22:00:00Z,27.9396,-96.8429,2.0,216.9423155,66.1880533,-99999.0,'11111222,11111222,99999999' 
TABS,ioos:station:wmo:42048:1,1997-04-03T22:30:00Z,27.9396,-96.8429,2.0,221.9755798,63.93370394,-99999.0,'11111222,11111222,99999999' 
TABS,ioos:station:wmo:42048:1,1997-04-03T23:00:00Z,27.9396,-96.8429,2.0,223.6623858,63.02037924,-99999.0,'11111222,11111222,99999999' 
TABS,ioos:station:wmo:42048:1,1997-04-03T23:30:00Z,27.9396,-96.8429,2.0,218.46952,56.51803341,-99999.0,'11111222,11111222,99999999' 
TABS,ioos:station:wmo:42048:1,1997-04-04T00:00:00Z,27.9396,-96.8429,2.0,216.4662524,59.66147836,-99999.0,'11111222,11111222,99999999' 
TABS,ioos:station:wmo:42048:1,1997-04-04T00:30:00Z,27.9396,-96.8429,2.0,217.1739574,55.72278618,-99999.0,'11111222,11111222,99999999' 
TABS,ioos:station:wmo:42048:1,1997-04-04T01:00:00Z,27.9396,-96.8429,2.0,218.1703306,57.62084779,-99999.0,'11111222,11111222,99999999' 
TABS,ioos:station:wmo:42048:1,1997-04-04T01:30:00Z,27.9396,-96.8429,2.0,226.5772031,61.1313373,-99999.0,'11111222,11111222,99999999' 
TABS,ioos:station:wmo:42048:1,1997-04-04T02:00:00Z,27.9396,-96.8429,2.0,221.842962,57.3980984,-99999.0,'11111222,11111222,99999999' 
TABS,ioos:station:wmo:42048:1,1997-04-04T02:30:00Z,27.9396,-96.8429,2.0,225.6219066,57.95081794,-99999.0,'11111222,11111222,99999999' 
TABS,ioos:station:wmo:42048:1,1997-04-04T03:00:00Z,27.9396,-96.8429,2.0,225.7746007,54.89772035,-99999.0,'11111222,11111222,99999999' 
TABS,ioos:station:wmo:42048:1,1997-04-04T03:30:00Z,27.9396,-96.8429,2.0,228.5134264,53.30291737,-99999.0,'11111222,11111222,99999999' 
TABS,ioos:station:wmo:42048:1,1997-04-04T04:00:00Z,27.9396,-96.8429,2.0,226.5249011,51.53805972,-99999.0,'11111222,11111222,99999999' 
TABS,ioos:station:wmo:42048:1,1997-04-04T04:30:00Z,27.9396,-96.8429,2.0,226.2505492,52.79810319,-99999.0,'11111222,11111222,99999999' 
TABS,ioos:station:wmo:42048:1,1997-04-04T05:00:00Z,27.9396,-96.8429,2.0,231.2270377,47.58623751,-99999.0,'11111222,11111222,99999999' 
TABS,ioos:station:wmo:42048:1,1997-04-04T05:30:00Z,27.9396,-96.8429,2.0,223.2100285,50.49083976,-99999.0,'11111222,11111222,99999999' 
TABS,ioos:station:wmo:42048:1,1997-04-04T06:00:00Z,27.9396,-96.8429,2.0,222.7846444,46.2864397,-99999.0,'11111222,11111222,99999999' 
TABS,ioos:station:wmo:42048:1,1997-04-04T06:30:00Z,27.9396,-96.8429,2.0,221.773767,48.75448697,-99999.0,'11111222,11111222,99999999' 
TABS,ioos:station:wmo:42048:1,1997-04-04T07:00:00Z,27.9396,-96.8429,2.0,223.8365689,46.67866536,-99999.0,'11111222,11111222,99999999' 
TABS,ioos:station:wmo:42048:1,1997-04-04T07:30:00Z,27.9396,-96.8429,2.0,220.7589524,41.30913942,-99999.0,'11111222,11111222,99999999' 
TABS,ioos:station:wmo:42048:1,1997-04-04T08:00:00Z,27.9396,-96.8429,2.0,219.6405813,38.30879272,-99999.0,'11111222,11111222,99999999' 
TABS,ioos:station:wmo:42048:1,1997-04-04T08:30:00Z,27.9396,-96.8429,2.0,219.4921455,35.14280723,-99999.0,'11111222,11111222,99999999' 
TABS,ioos:station:wmo:42048:1,1997-04-04T09:00:00Z,27.9396,-96.8429,2.0,210.921466,35.08690496,-99999.0,'11111222,11111222,99999999' 
TABS,ioos:station:wmo:42048:1,1997-04-04T09:30:00Z,27.9396,-96.8429,2.0,219.4060406,38.95616639,-99999.0,'11111222,11111222,99999999' 
TABS,ioos:station:wmo:42048:1,1997-04-04T10:00:00Z,27.9396,-96.8429,2.0,220.6380368,40.25904743,-99999.0,'11111222,11111222,99999999' 
TABS,ioos:station:wmo:42048:1,1997-04-04T10:30:00Z,27.9396,-96.8429,2.0,224.3893135,39.82651378,-99999.0,'11111222,11111222,99999999' 
TABS,ioos:station:wmo:42048:1,1997-04-04T11:00:00Z,27.9396,-96.8429,2.0,213.1070869,36.81735596,-99999.0,'11111222,11111222,99999999' 
TABS,ioos:station:wmo:42048:1,1997-04-04T11:30:00Z,27.9396,-96.8429,2.0,216.0070407,35.73804975,-99999.0,'11111222,11111222,99999999' 
TABS,ioos:station:wmo:42048:1,1997-04-04T12:00:00Z,27.9396,-96.8429,2.0,207.3459945,29.19234489,-99999.0,'11111222,11111222,99999999' 
TABS,ioos:station:wmo:42048:1,1997-04-04T12:30:00Z,27.9396,-96.8429,2.0,187.604418,41.63619819,-99999.0,'11111222,11111222,99999999' 
TABS,ioos:station:wmo:42048:1,1997-04-04T13:00:00Z,27.9396,-96.8429,2.0,190.7525525,39.1270188,-99999.0,'11111222,11111222,99999999' 
TABS,ioos:station:wmo:42048:1,1997-04-04T13:30:00Z,27.9396,-96.8429,2.0,225.3791201,32.0326396,-99999.0,'11111222,11111222,99999999' 
TABS,ioos:station:wmo:42048:1,1997-04-04T14:00:00Z,27.9396,-96.8429,2.0,241.4780191,29.34090149,-99999.0,'11111222,11111222,99999999' 
TABS,ioos:station:wmo:42048:1,1997-04-04T14:30:00Z,27.9396,-96.8429,2.0,248.6236039,25.76222428,-99999.0,'11111222,11111222,99999999' 
TABS,ioos:station:wmo:42048:1,1997-04-04T15:00:00Z,27.9396,-96.8429,2.0,244.5997645,26.39105909,-99999.0,'11111222,11111222,99999999' 
TABS,ioos:station:wmo:42048:1,1997-04-04T15:30:00Z,27.9396,-96.8429,2.0,253.1768007,45.29858386,-99999.0,'11111222,11111222,99999999' 
TABS,ioos:station:wmo:42048:1,1997-04-04T16:00:00Z,27.9396,-96.8429,2.0,241.6506861,42.66696732,-99999.0,'11111222,11111222,99999999' 